Location: Rounton
(54.4000°N, 1.3500°W)
Time: 14:31:57
(UTC+00:00)

Transit 4A - Pass Details

Date: 30 November 2021
Orbit: 864 x 981 km, 66.8° (Epoch: 18 January)

Event Time Altitude Azimuth Distance (km) Brightness Sun altitude
Rises 00:41:57 0° 291° (WNW) 3,527 - -56.0°
Reaches altitude 10° 00:44:53 10° 304° (NW) 2,606 - -55.9°
Maximum altitude 00:49:53 26° 360° (N) 1,761 - -55.6°
Drops below altitude 10° 00:54:59 10° 55° (NE) 2,675 - -55.3°
Sets 00:58:03 0° 68° (ENE) 3,639 - -55.1°
